TimeEST,TemperatureF,Dew PointF,Humidity,Sea Level PressureIn,VisibilityMPH,Wind Direction,Wind SpeedMPH,Gust SpeedMPH,PrecipitationIn,Events,Conditions,WindDirDegrees,DateUTC
12:54 AM,21.0,10.0,63,29.80,10.0,West,3.5,-,N/A,,Clear,270,2012-11-26 05:54:00
1:54 AM,19.9,10.0,65,29.82,10.0,WSW,3.5,-,N/A,,Clear,240,2012-11-26 06:54:00
2:54 AM,17.1,10.9,77,29.83,10.0,Calm,Calm,-,N/A,,Clear,0,2012-11-26 07:54:00
3:54 AM,17.1,12.0,81,29.83,10.0,WSW,3.5,-,N/A,,Clear,240,2012-11-26 08:54:00
4:54 AM,12.9,10.0,88,29.86,10.0,Calm,Calm,-,N/A,,Clear,0,2012-11-26 09:54:00
5:54 AM,14.0,10.9,88,29.86,10.0,SW,3.5,-,N/A,,Clear,230,2012-11-26 10:54:00
6:54 AM,14.0,12.0,92,29.88,10.0,Calm,Calm,-,N/A,,Clear,0,2012-11-26 11:54:00
7:54 AM,25.0,19.0,78,29.88,10.0,SW,5.8,-,N/A,,Clear,220,2012-11-26 12:54:00
8:54 AM,33.1,23.0,66,29.89,10.0,SW,5.8,-,N/A,,Clear,230,2012-11-26 13:54:00
9:54 AM,37.9,24.1,57,29.91,10.0,SW,10.4,-,N/A,,Mostly Cloudy,230,2012-11-26 14:54:00
10:54 AM,37.0,24.1,59,29.91,10.0,SW,8.1,-,N/A,,Overcast,230,2012-11-26 15:54:00
11:54 AM,37.9,21.9,53,29.93,10.0,Variable,5.8,-,N/A,,Overcast,0,2012-11-26 16:54:00
12:54 PM,37.0,21.0,52,29.98,10.0,NW,11.5,18.4,N/A,,Overcast,310,2012-11-26 17:54:00
1:54 PM,37.0,19.0,48,30.00,10.0,NW,10.4,16.1,N/A,,Overcast,310,2012-11-26 18:54:00
2:54 PM,35.1,17.1,48,30.03,10.0,NW,6.9,-,N/A,,Scattered Clouds,320,2012-11-26 19:54:00
3:54 PM,33.1,15.1,48,30.08,10.0,WNW,8.1,-,N/A,,Partly Cloudy,290,2012-11-26 20:54:00
4:54 PM,32.0,14.0,48,30.09,10.0,West,13.8,23.0,N/A,,Clear,270,2012-11-26 21:54:00
5:54 PM,30.9,10.0,42,30.12,10.0,WSW,8.1,-,N/A,,Clear,250,2012-11-26 22:54:00
6:54 PM,28.9,12.0,49,30.14,10.0,WSW,9.2,-,N/A,,Clear,250,2012-11-26 23:54:00
7:54 PM,30.9,12.0,46,30.15,10.0,WSW,10.4,20.7,N/A,,Clear,250,2012-11-27 00:54:00
8:54 PM,30.9,10.9,43,30.17,10.0,Variable,4.6,-,N/A,,Clear,0,2012-11-27 01:54:00
9:54 PM,28.9,12.0,49,30.19,10.0,Calm,Calm,-,N/A,,Clear,0,2012-11-27 02:54:00
10:54 PM,27.0,12.9,56,30.22,10.0,Calm,Calm,-,0.00,,Clear,0,2012-11-27 03:54:00
11:54 PM,21.9,12.9,68,30.23,10.0,Calm,Calm,-,N/A,,Clear,0,2012-11-27 04:54:00